Weather in Kirovo-Chepetsk

Russia / Kirov Oblast     58°33′23″N   50°02′38″E
temp.,
°C
wind,
m/s
gust,
m/s
humid.,
%
clouds,
%
prec.,
mm/h
press.,
hPa
HPBL,
m
26 july, mon
mon2600:00+10wsw257882 0.0 102092
03:00+12wsw2669100 0.0 1020159
06:00+13wsw2771100 0.0 1020257
09:00+17w3658100 0.0 1019527
12:00+20w5745100 0.0 10181513
15:00+21wsw484579 0.0 10172169
18:00+19wsw3960100 0.1 1015574
21:00+14sw228869 0.8 101535
27 july, tue
tue2700:00+13wnw249927 1.6 1015126
03:00+11wnw289925 1.6 1016254
06:00+12nnw359171 0.0 1017478
09:00+16nw366260 0.0 10161304
12:00+18nw474797 0.1 10152029
15:00+18nnw564699 0.2 10151864
18:00+16nnw37526 0.0 1016596
21:00+13wsw2663100 0.0 1015128
28 july, wed
wed2800:00+13w41058100 0.0 1015307
03:00+11w411695 0.0 1015336
06:00+12wnw38675 0.0 1015327
09:00+18nw48455 0.0 10141392
12:00+21wnw47375 0.0 10132256
15:00+22w5735100 0.0 10112391
18:00+20w374784 0.0 1010322
21:00+15nnw246552 0.0 100991
29 july, thu
thu2900:00+13ssw227565 0.0 100930
03:00+14sw26675 0.0 1007124
06:00+16wsw276972 0.0 1006185
09:00+23wsw35485 0.0 1006696
12:00+27wsw463575 0.0 10042785
15:00+20nw146998 0.1 1004182
18:00+22sse246675 0.1 1003139
21:00+17sw2789100 0.1 1003132
30 july, fri
fri3000:00+16ssw399782 0.0 1003250
03:00+14ssw2698100 0.0 1003142
06:00+16ssw2489100 0.0 1002208
09:00+21sw346894 0.0 1002921
12:00+19w378984 2.1 1002446
15:00+21wnw587919 4.7 1002966
18:00+20nw378081 1.4 1002201
21:00+16wnw228863 1.4 100539